User: anonymous   Login
Location: Innerarity Island Observatory
(30.3139°N, 87.4867°W)
Time: 01:59:59
(UTC-05:00)
Language:

FO-29 - Orbit

View from above orbital plane
View from above orbital plane
View from above satellite
View from above satellite

Ground track
Ground track

The orbit data is extracted from the following two-line orbital elements,

1 24278U 96046B   17174.89258038 -.00000029 +00000-0 +93349-5 0  9996
2 24278 098.5630 057.2579 0349702 320.1939 037.4014 13.53076664029789
Epoch (UTC): 23 June 2017 21:25:18
Eccentricity: 0.0349702
inclination: 98.5630°
perigee height: 801 km
apogee height: 1321 km
right ascension of ascending node: 57.2579°
argument of perigee: 320.1939°
revolutions per day: 13.53076664
mean anomaly at epoch: 37.4014°
orbit number at epoch: 2978

The dashed part of the orbit path shows where the satellite is in the earth's shadow,  

DLR